Regional Weather Roundup
Issued by NWS

Home | Current Version | Previous Version | Text Only | Print | Product List | Glossary Off
Versions: 1 2 3 4 5 6 7 8 9 10 11 12 13 14 15 16 17 18 19 20 21 22 23 24 25 26 27 28 29 30 31 32 33 34 35 36 37 38 39 40 41 42 43 44 45 46 47 48 49 50

000
ASUS45 KBOU 281907
RWRCO

WEATHER ROUNDUP FOR COLORADO
NATIONAL WEATHER SERVICE DENVER/BOULDER CO
1200 PM MST SUN DEC 28 2014

NOTE: "FAIR" INDICATES FEW OR NO CLOUDS BELOW 12000 FEET WITH NO
SIGNIFICANT WEATHER AND/OR OBSTRUCTIONS TO VISIBILITY.

COZ001>005-013-030-031-282000-
...NORTHWEST COLORADO...

CITY           SKY/WX    TMP DP  RH WIND       PRES   REMARKS
CRAIG          LGT SNOW  20  14  77 NE5       29.99F VSB 3/4 WCI  13
HAYDEN         CLOUDY    12   9  85 NE6       29.98F WCI   3
MEEKER         CLOUDY    24  10  55 SW13G23   29.99F WCI  12
MOUNT WERNER   NOT AVBL
STEAMBOAT SPGS CLOUDY    12   8  81 CALM      29.96F
WALDEN         CLOUDY    19   7  58 S13G24    29.86F WCI   7
$$

COZ006>008-011-282000-
...WEST CENTRAL VALLEYS...

CITY           SKY/WX    TMP DP  RH WIND       PRES   REMARKS
GRAND JUNCTION CLOUDY    28  12  51 E3        30.12F
MONTROSE       MOSUNNY   28   8  43 NW5       30.09F WCI  23
EAGLE          FLURRIES  23  18  80 CALM      30.03F
RIFLE          CLOUDY    19  12  74 NE3       30.10F
DELTA          NOT AVBL
NUCLA          NOT AVBL
$$

COZ017>023-064>068-282000-
...SOUTHWEST COLORADO...

CITY           SKY/WX    TMP DP  RH WIND       PRES   REMARKS
DURANGO        MOSUNNY   18  12  77 E5        30.12F WCI  11
CORTEZ         MOSUNNY   26  10  50 MISG      30.14F
PAGOSA SPRINGS NOT AVBL
TELLURIDE      NOT AVBL
WOLF CREEK PAS SUNNY      9   3  78 MISG      29.94F
$$

COZ009-010-012-014-032>034-037-058>063-282000-
...CENTRAL COLORADO...

CITY           SKY/WX    TMP DP  RH WIND       PRES   REMARKS
ASPEN          LGT SNOW  15  10  80 N6        29.96F WCI   6
BUENA VISTA    NOT AVBL
COPPER MTN     LGT SNOW   9   1  72 MISG      29.81F VSB 3/4
BERTHOUD PASS  NOT AVBL
COTTONWOOD PAS CLOUDY    21   5  49 N13G25    29.86F WCI   9
GUNNISON       CLOUDY     0 -24  32 CALM      30.09F
KREMMLING      LGT SNOW  14   9  79 CALM      29.96F
LEADVILLE      FLURRIES  14   5  67 NW9       29.86F WCI   2
SALIDA         NOT AVBL
SUNLIGHT       SNOW     N/A N/A N/A CALM      29.89F VSB 1/2
WILKERSON PASS MOSUNNY   18   5  57 W5        29.85F WCI  11
$$

COZ069>075-282000-
...SAN LUIS VALLEY/SANGRE DE CRISTO MOUNTAINS...

CITY           SKY/WX    TMP DP  RH WIND       PRES   REMARKS
ALAMOSA        SUNNY     17   4  56 NE7       30.04F WCI   8
LA VETA PASS   NOT AVBL
SAGUACHE       SUNNY      7  -4  61 SE5       30.03F WCI  -2
$$

COZ035-036-038>040-282000-
...NORTHERN COLORADO FRONT RANGE...

CITY           SKY/WX    TMP DP  RH WIND       PRES   REMARKS
DENVER INTL AP MOSUNNY   30  11  45 SE6       29.85F WCI  24
DMNS CITY PARK   N/A     38   8  28 E2        29.84F
AURORA         MOSUNNY   33  14  45 E2        29.85F
FRONT RANGE AP MOSUNNY   32  14  47 CALM      29.86F
ERIE MUNI ARPT NOT AVBL
BOULDER MUN AP SUNNY     28  14  54 W7        29.86S WCI  21
CENTENNIAL     MOSUNNY   32  13  45 CALM      29.83F
BROOMFIELD     MOSUNNY   32  10  40 SE6       29.84F WCI  26
FORT COLLINS   MOSUNNY   21  10  63 NE5       29.88F WCI  15
LONGMONT       MOSUNNY   34  14  44 CALM      29.88F
$$

COZ041-046-047-076>085-087-088-282000-
...PIKES PEAK/PALMER DIVIDE AND SOUTHERN FOOTHILLS...

CITY           SKY/WX    TMP DP  RH WIND       PRES   REMARKS
COLO. SPRINGS  MOSUNNY   41   5  22 W17G26    29.83F
A. F. ACADEMY  SUNNY     38   9  29 W15G23    29.82F
ELLICOTT       NOT AVBL
FALCON         SUNNY     39   5  24 SW7       29.84F
FORT CARSON    SUNNY     39   9  29 CALM      29.84F
LIMON          SUNNY     31  10  41 CALM      29.86F
MONUMENT HILL  SUNNY     32  10  40 CALM      29.82F
TRINIDAD       SUNNY     25  16  68 S8        29.87F WCI  16
$$

COZ042>045-048>051-090-091-282000-
...NORTHEAST COLORADO...

CITY           SKY/WX    TMP DP  RH WIND       PRES   REMARKS
GREELEY ARPT   MOSUNNY   12   7  79 NE6       29.88F WCI   3
AKRON          CLOUDY    19  13  77 S7        29.88F WCI  10
BURLINGTON     CLOUDY    29  20  69 SE8       29.91F WCI  21
WRAY           NOT AVBL
STERLING       CLOUDY    18  12  79 SW5       29.93F WCI  11
HOLYOKE        SUNNY     30  16  55 CALM      29.94F
FORT MORGAN    NOT AVBL
$$

COZ086-089-092>099-282000-
...SOUTHEAST COLORADO...

CITY           SKY/WX    TMP DP  RH WIND       PRES   REMARKS
PUEBLO         SUNNY     41  11  29 W18G28    29.85F
LA JUNTA       SUNNY     31  16  54 W6        29.90F WCI  25
LAMAR          MOSUNNY   31  18  58 W3        29.91F
SPRINGFIELD      N/A     42  10  27 S10       29.89F
$$



USA.gov is the U.S. government's official web portal to all federal, state and local government web resources and services.